Location: Kuffner-Sternwarte
(48.2130°N, 16.2960°E)
Time: 06:30:08
(UTC+02:00)

Envisat - Pass Details

Date: 24 September 2024
Orbit: 762 x 764 km, 98.3° (Epoch: 04 October)

Event Time Altitude Azimuth Distance (km) Brightness Sun altitude
Rises 05:25:01 0° 4° (N) 3,238 6.5 -13.9°
Reaches altitude 10° 05:27:40 10° 352° (N) 2,307 5.6 -13.5°
Maximum altitude 05:31:44 25° 299° (WNW) 1,509 4.1 -12.9°
Enters shadow 05:34:11 18° 259° (W) 1,831 4.3 -12.5°
